Total_Precipitation_Accumulation
0.52 0.49 0.45 0.44 0.41 0.33 0.28 0.29 0.25 0.23 0.21 0.19 0.16 0.13 0.11 0.11 0.10 0.11 0.11 0.11 0.10 0.13 0.20 0.26 0.31 0.33 0.36 0.40 0.43 0.44 0.42 0.41 0.40 0.40 0.40 0.40 0.39 0.38 0.39 0.39 0.39 0.38 0.37
0.61 0.53 0.50 0.49 0.44 0.40 0.36 0.34 0.30 0.29 0.27 0.24 0.19 0.15 0.12 0.12 0.12 0.11 0.11 0.11 0.11 0.10 0.13 0.21 0.30 0.37 0.44 0.51 0.58 0.62 0.59 0.56 0.53 0.51 0.51 0.50 0.48 0.45 0.46 0.46 0.45 0.46 0.45
0.79 0.69 0.60 0.53 0.45 0.43 0.44 0.44 0.43 0.40 0.34 0.30 0.24 0.20 0.17 0.15 0.13 0.12 0.12 0.12 0.11 0.10 0.10 0.15 0.23 0.32 0.40 0.50 0.62 0.70 0.72 0.72 0.70 0.67 0.63 0.61 0.61 0.60 0.59 0.59 0.59 0.61 0.63
0.85 0.83 0.72 0.62 0.56 0.53 0.51 0.51 0.49 0.46 0.41 0.37 0.31 0.28 0.24 0.21 0.17 0.16 0.15 0.13 0.11 0.10 0.10 0.12 0.17 0.22 0.30 0.42 0.55 0.68 0.72 0.73 0.72 0.70 0.67 0.65 0.65 0.66 0.68 0.70 0.72 0.75 0.80
0.93 0.89 0.81 0.70 0.68 0.66 0.57 0.52 0.50 0.46 0.45 0.44 0.42 0.37 0.32 0.28 0.26 0.24 0.23 0.20 0.17 0.15 0.13 0.12 0.14 0.17 0.21 0.29 0.40 0.57 0.72 0.76 0.78 0.79 0.78 0.75 0.71 0.72 0.75 0.78 0.83 0.88 0.95
1.06 0.99 0.94 0.85 0.80 0.82 0.76 0.66 0.58 0.54 0.49 0.46 0.47 0.45 0.42 0.38 0.33 0.30 0.28 0.25 0.23 0.20 0.19 0.19 0.18 0.17 0.18 0.22 0.29 0.41 0.59 0.73 0.79 0.81 0.82 0.84 0.83 0.83 0.86 0.91 0.99 1.07 1.18
1.20 1.10 0.97 0.96 0.94 0.89 0.84 0.81 0.78 0.74 0.69 0.67 0.67 0.59 0.49 0.45 0.41 0.35 0.33 0.31 0.27 0.25 0.24 0.23 0.23 0.22 0.22 0.23 0.27 0.33 0.44 0.60 0.80 0.88 0.90 0.89 0.91 0.98 1.05 1.12 1.22 1.32 1.38
1.28 1.24 1.12 0.99 0.98 0.98 0.94 0.91 0.90 0.87 0.83 0.84 0.89 0.89 0.74 0.58 0.44 0.37 0.36 0.35 0.35 0.35 0.35 0.32 0.31 0.31 0.30 0.29 0.28 0.32 0.37 0.45 0.62 0.87 1.01 1.05 1.07 1.11 1.25 1.41 1.54 1.61 1.67
1.50 1.38 1.36 1.25 1.10 1.05 0.98 0.92 0.88 0.89 0.88 0.87 0.88 1.00 0.94 0.73 0.56 0.44 0.37 0.35 0.36 0.39 0.38 0.37 0.35 0.35 0.34 0.32 0.30 0.31 0.35 0.40 0.50 0.73 1.01 1.21 1.31 1.41 1.55 1.74 1.92 2.06 2.08
1.80 1.72 1.60 1.53 1.38 1.24 1.12 1.07 1.02 0.99 1.01 0.98 0.94 0.89 0.87 0.78 0.76 0.62 0.45 0.40 0.38 0.39 0.40 0.39 0.35 0.34 0.37 0.39 0.39 0.42 0.45 0.49 0.57 0.71 0.97 1.25 1.48 1.71 1.95 2.12 2.24 2.36 2.39
1.85 1.81 1.78 1.71 1.58 1.47 1.37 1.32 1.26 1.19 1.17 1.13 1.06 1.00 0.97 0.87 0.80 0.82 0.62 0.45 0.45 0.45 0.48 0.48 0.46 0.43 0.43 0.47 0.50 0.55 0.61 0.62 0.70 0.83 1.07 1.37 1.73 2.06 2.34 2.52 2.59 2.54 2.47
1.96 1.81 1.77 1.77 1.72 1.66 1.60 1.56 1.53 1.43 1.34 1.27 1.22 1.16 1.15 1.11 0.95 0.96 0.89 0.67 0.61 0.54 0.55 0.57 0.58 0.59 0.58 0.59 0.61 0.70 0.70 0.71 0.77 0.89 1.16 1.47 1.68 1.90 2.12 2.37 2.55 2.62 2.64
1.94 1.85 1.78 1.79 1.79 1.71 1.69 1.69 1.64 1.54 1.46 1.39 1.35 1.31 1.25 1.17 1.13 1.17 1.21 1.05 0.90 0.73 0.66 0.64 0.62 0.64 0.66 0.69 0.71 0.80 0.78 0.82 0.85 0.89 1.05 1.36 1.50 1.54 1.59 1.75 2.04 2.31 2.49
1.92 1.91 1.89 1.80 1.79 1.77 1.70 1.68 1.63 1.54 1.48 1.44 1.39 1.37 1.33 1.25 1.26 1.31 1.37 1.43 1.32 1.05 0.86 0.74 0.70 0.76 0.79 0.82 0.85 0.89 0.75 0.81 0.80 0.84 0.90 1.03 1.10 1.09 1.14 1.26 1.46 1.69 1.91
1.79 1.76 1.78 1.71 1.65 1.63 1.62 1.61 1.57 1.49 1.43 1.37 1.32 1.32 1.29 1.22 1.23 1.27 1.35 1.51 1.68 1.52 1.13 0.85 0.78 0.79 0.85 0.86 0.92 0.88 0.77 0.82 0.83 0.81 0.82 0.82 0.85 0.89 0.92 1.00 1.12 1.25 1.40
1.43 1.48 1.52 1.53 1.49 1.47 1.46 1.45 1.42 1.40 1.39 1.29 1.23 1.23 1.19 1.14 1.17 1.23 1.30 1.38 1.54 1.66 1.40 0.93 0.78 0.73 0.77 0.78 0.82 0.77 0.71 0.81 0.76 0.72 0.70 0.72 0.75 0.81 0.84 0.89 0.94 1.02 1.11
1.11 1.15 1.16 1.19 1.24 1.26 1.28 1.27 1.26 1.27 1.28 1.24 1.20 1.20 1.19 1.16 1.16 1.16 1.19 1.24 1.31 1.43 1.42 1.01 0.82 0.79 0.79 0.76 0.74 0.71 0.66 0.66 0.64 0.69 0.67 0.68 0.70 0.76 0.83 0.85 0.88 0.91 0.96
0.95 0.94 0.94 0.94 0.95 0.98 1.03 1.06 1.05 1.07 1.11 1.11 1.10 1.12 1.12 1.14 1.18 1.15 1.14 1.13 1.11 1.12 1.21 1.05 0.79 0.74 0.73 0.72 0.75 0.76 0.70 0.65 0.60 0.66 0.67 0.65 0.67 0.70 0.74 0.82 0.87 0.91 0.93
0.87 0.83 0.82 0.81 0.80 0.81 0.84 0.89 0.95 0.97 0.99 1.00 0.99 1.00 1.01 1.05 1.07 1.03 1.01 0.99 0.97 1.00 1.08 1.08 0.88 0.75 0.71 0.71 0.77 0.77 0.73 0.70 0.65 0.69 0.74 0.73 0.75 0.74 0.77 0.82 0.89 0.94 0.96
0.91 0.82 0.76 0.74 0.74 0.76 0.80 0.83 0.91 0.96 0.97 0.97 0.98 0.98 0.95 0.91 0.88 0.87 0.89 0.91 0.98 1.07 1.09 1.14 1.02 0.85 0.79 0.75 0.81 0.81 0.78 0.72 0.72 0.72 0.82 0.86 0.87 0.84 0.81 0.84 0.88 0.94 0.98
0.89 0.89 0.84 0.79 0.77 0.76 0.81 0.86 0.90 0.94 0.95 0.96 0.93 0.90 0.89 0.90 0.86 0.83 0.85 0.89 0.98 1.12 1.23 1.29 1.21 1.05 0.92 0.85 0.82 0.81 0.89 0.89 0.88 0.82 0.83 0.86 0.87 0.88 0.88 0.90 0.92 0.93 0.96
0.85 0.92 0.96 0.93 0.88 0.86 0.98 0.96 0.91 0.92 0.95 0.94 0.91 0.85 0.82 0.86 0.83 0.83 0.85 0.92 1.06 1.21 1.35 1.41 1.36 1.20 0.95 0.82 0.84 0.97 1.12 1.28 1.21 0.87 0.87 0.91 0.89 0.96 0.93 0.90 1.02 1.06 1.04
0.94 0.96 1.01 1.04 1.02 1.05 1.08 0.95 0.93 0.86 0.86 0.88 0.85 0.82 0.78 0.75 0.79 0.73 0.79 0.91 1.00 1.10 1.17 1.18 1.16 0.97 0.86 0.82 1.01 1.26 1.31 1.37 1.18 0.91 1.05 1.17 1.03 1.00 0.93 0.96 1.12 1.07 1.04
0.96 1.00 1.03 1.02 0.99 1.00 1.00 0.89 0.85 0.79 0.79 0.80 0.79 0.76 0.77 0.78 0.77 0.82 0.88 0.94 0.85 0.79 0.82 0.82 0.85 0.84 0.86 0.94 1.20 1.51 1.63 1.65 1.43 1.23 1.22 1.32 1.07 0.97 0.93 0.96 1.10 1.04 0.97
0.92 0.90 0.91 0.92 0.92 0.92 0.89 0.80 0.76 0.71 0.73 0.70 0.68 0.67 0.69 0.71 0.86 1.02 1.06 1.06 0.88 0.71 0.72 0.82 0.91 0.93 0.97 1.05 1.17 1.49 1.76 1.89 1.67 1.25 1.11 1.20 1.11 1.04 1.04 0.99 1.00 1.06 1.00
0.85 0.82 0.78 0.76 0.75 0.76 0.79 0.74 0.71 0.67 0.69 0.67 0.64 0.63 0.69 0.71 0.85 1.01 0.98 1.03 0.97 0.80 0.78 0.81 0.84 0.88 0.85 0.92 1.12 1.28 1.74 2.24 2.00 1.52 1.04 1.15 1.19 1.28 1.48 1.10 0.93 0.95 0.98